| time (UTC) | temp C | wind direction | speed KPH | gust KPH | rain 1hr cm | rain 24hr cm | rain mn cm | humidity % | barometer mb |
| 20260906093005 | 22 | 21 | 0.0 | 1.6 | 0.00 | 0.03 | 0.00 | 89 | 1010.3 |
| 20260906091504 | 22 | 21 | 0.0 | 1.6 | 0.00 | 0.03 | 0.00 | 89 | 1010.2 |
| 20260906090004 | 22 | 21 | 0.0 | 0.0 | 0.00 | 0.03 | 0.00 | 89 | 1010.2 |
| 20260906084507 | 22 | 21 | 0.0 | 1.6 | 0.00 | 0.03 | 0.00 | 89 | 1010.2 |
| 20260906083003 | 22 | 21 | 0.0 | 0.0 | 0.00 | 0.03 | 0.00 | 89 | 1010.2 |
| 20260906081502 | 22 | 21 | 0.0 | 1.6 | 0.00 | 0.03 | 0.00 | 88 | 1010.2 |
| 20260906080000 | 22 | 21 | 0.0 | 1.6 | 0.00 | 0.03 | 0.00 | 88 | 1009.9 |
| 20260906074559 | 22 | 21 | 0.0 | 0.0 | 0.00 | 0.03 | 0.00 | 88 | 1010.0 |
| 20260906073058 | 22 | 21 | 0.0 | 1.6 | 0.00 | 0.03 | 0.00 | 88 | 1009.9 |
| 20260906071658 | 22 | 21 | 0.0 | 1.6 | 0.00 | 0.03 | 0.00 | 88 | 1010.1 |
| 20260906070057 | 22 | 21 | 0.0 | 0.0 | 0.00 | 0.03 | 0.00 | 87 | 1010.1 |
| 20260906064556 | 22 | 21 | 0.0 | 1.6 | 0.00 | 0.03 | 0.00 | 87 | 1010.1 |
| 20260906063053 | 22 | 19 | 0.0 | 3.2 | 0.00 | 0.03 | 0.00 | 88 | 1010.4 |
| 20260906061553 | 22 | 5 | 0.0 | 3.2 | 0.00 | 0.03 | 0.00 | 88 | 1010.5 |
| 20260906060107 | 23 | 360 | 0.0 | 3.2 | 0.00 | 0.03 | 0.00 | 88 | 1010.6 |
| 20260906054553 | 23 | 42 | 0.0 | 3.2 | 0.00 | 0.03 | 0.00 | 88 | 1010.7 |
| 20260906053046 | 23 | 55 | 0.0 | 0.0 | 0.00 | 0.03 | 0.00 | 88 | 1010.7 |
| 20260906051545 | 23 | 55 | 0.0 | 0.0 | 0.00 | 0.03 | 0.00 | 88 | 1010.8 |
| 20260906050043 | 23 | 55 | 0.0 | 0.0 | 0.00 | 0.03 | 0.00 | 88 | 1011.0 |
| 20260906044540 | 23 | 55 | 0.0 | 0.0 | 0.00 | 0.03 | 0.00 | 88 | 1011.0 |
| 20260906043036 | 23 | 55 | 0.0 | 0.0 | 0.00 | 0.03 | 0.00 | 87 | 1011.0 |
| 20260906041535 | 23 | 55 | 0.0 | 0.0 | 0.00 | 0.03 | 0.00 | 87 | 1011.0 |
| 20260906040029 | 23 | 55 | 0.0 | 0.0 | 0.00 | 0.03 | 0.03 | 87 | 1011.0 |
| 20260906034549 | 23 | 55 | 0.0 | 0.0 | 0.00 | 0.03 | 0.03 | 87 | 1011.2 |
| 20260906033032 | 23 | 55 | 0.0 | 0.0 | 0.00 | 0.03 | 0.03 | 87 | 1011.2 |
| 20260906031531 | 23 | 355 | 0.0 | 1.6 | 0.00 | 0.03 | 0.03 | 86 | 1011.7 |
| 20260906030028 | 23 | 355 | 0.0 | 1.6 | 0.00 | 0.03 | 0.03 | 86 | 1011.9 |
| 20260906024527 | 24 | 355 | 0.0 | 3.2 | 0.00 | 0.03 | 0.03 | 86 | 1012.0 |
| 20260906023029 | 24 | 304 | 0.0 | 3.2 | 0.00 | 0.03 | 0.03 | 85 | 1012.0 |
| 20260906021532 | 24 | 312 | 0.0 | 3.2 | 0.00 | 0.03 | 0.03 | 84 | 1012.5 |
| 20260906020026 | 24 | 236 | 0.0 | 1.6 | 0.00 | 0.03 | 0.03 | 83 | 1012.2 |
| 20260906014525 | 24 | 165 | 0.0 | 3.2 | 0.00 | 0.03 | 0.03 | 81 | 1011.7 |
| 20260906013025 | 25 | 113 | 0.0 | 0.0 | 0.00 | 0.03 | 0.03 | 80 | 1011.1 |
| 20260906011524 | 25 | 113 | 0.0 | 1.6 | 0.00 | 0.03 | 0.03 | 80 | 1010.5 |
| 20260906010024 | 25 | 33 | 0.0 | 3.2 | 0.00 | 0.03 | 0.03 | 79 | 1010.1 |
| 20260906004523 | 25 | 42 | 0.0 | 3.2 | 0.00 | 0.03 | 0.03 | 78 | 1010.1 |
| 20260906003023 | 25 | 100 | 1.6 | 8.0 | 0.00 | 0.03 | 0.03 | 77 | 1010.0 |
| 20260906001540 | 25 | 121 | 1.6 | 6.4 | 0.00 | 0.03 | 0.03 | 75 | 1010.3 |
| 20260906000022 | 26 | 54 | 1.6 | 6.4 | 0.00 | 0.03 | 0.03 | 74 | 1010.3 |
| 20260905234520 | 26 | 107 | 3.2 | 16.1 | 0.00 | 0.03 | 0.03 | 73 | 1010.4 |
| 20260905233023 | 26 | 84 | 4.8 | 19.3 | 0.03 | 0.03 | 0.03 | 73 | 1010.7 |
| 20260905231523 | 26 | 42 | 3.2 | 6.4 | 0.03 | 0.03 | 0.03 | 78 | 1011.0 |
| 20260905230022 | 27 | 129 | 0.0 | 3.2 | 0.03 | 0.03 | 0.03 | 74 | 1010.5 |
| 20260905224522 | 29 | 84 | 0.0 | 6.4 | 0.03 | 0.03 | 0.03 | 66 | 1010.4 |
| 20260905223033 | 30 | 319 | 3.2 | 12.9 | 0.00 | 0.00 | 0.00 | 59 | 1011.0 |
| 20260905221521 | 32 | 333 | 6.4 | 27.4 | 0.00 | 0.00 | 0.00 | 57 | 1010.7 |
| 20260905220016 | 35 | 348 | 0.0 | 3.2 | 0.00 | 0.00 | 0.00 | 50 | 1009.4 |
| 20260905214515 | 36 | 326 | 0.0 | 3.2 | 0.00 | 0.00 | 0.00 | 47 | 1009.2 |
| 20260905213015 | 36 | 184 | 0.0 | 3.2 | 0.00 | 0.00 | 0.00 | 44 | 1009.0 |
| 20260905211513 | 36 | 174 | 1.6 | 4.8 | 0.00 | 0.00 | 0.00 | 44 | 1008.9 |
| 20260905210012 | 36 | 167 | 3.2 | 4.8 | 0.00 | 0.00 | 0.00 | 44 | 1009.2 |
| 20260905204510 | 35 | 355 | 1.6 | 6.4 | 0.00 | 0.00 | 0.00 | 47 | 1009.1 |
| 20260905203012 | 35 | 188 | 0.0 | 6.4 | 0.00 | 0.00 | 0.00 | 48 | 1009.1 |
| 20260905201517 | 36 | 182 | 0.0 | 9.7 | 0.00 | 0.00 | 0.00 | 46 | 1009.2 |
| 20260905200008 | 36 | 310 | 1.6 | 6.4 | 0.00 | 0.00 | 0.00 | 45 | 1009.4 |
| 20260905194507 | 37 | 198 | 3.2 | 11.3 | 0.00 | 0.00 | 0.00 | 45 | 1009.5 |
| 20260905193015 | 38 | 150 | 3.2 | 6.4 | 0.00 | 0.00 | 0.00 | 44 | 1009.7 |
| 20260905191504 | 38 | 289 | 1.6 | 6.4 | 0.00 | 0.00 | 0.00 | 44 | 1009.9 |
| 20260905190002 | 38 | 180 | 1.6 | 4.8 | 0.00 | 0.00 | 0.00 | 48 | 1010.1 |
| 20260905184608 | 38 | 188 | 1.6 | 11.3 | 0.00 | 0.00 | 0.00 | 47 | 1010.5 |
| 20260905183056 | 38 | 121 | 3.2 | 8.0 | 0.00 | 0.00 | 0.00 | 48 | 1010.8 |
| 20260905181553 | 37 | 63 | 1.6 | 6.4 | 0.00 | 0.00 | 0.00 | 48 | 1011.0 |
| 20260905180050 | 37 | 318 | 3.2 | 9.7 | 0.00 | 0.00 | 0.00 | 48 | 1011.1 |
| 20260905174546 | 36 | 74 | 1.6 | 8.0 | 0.00 | 0.00 | 0.00 | 48 | 1011.5 |
| 20260905173050 | 36 | 5 | 1.6 | 8.0 | 0.00 | 0.00 | 0.00 | 53 | 1011.7 |
| 20260905171543 | 37 | 208 | 3.2 | 6.4 | 0.00 | 0.00 | 0.00 | 49 | 1011.8 |
| 20260905170039 | 36 | 173 | 1.6 | 4.8 | 0.00 | 0.00 | 0.00 | 56 | 1012.1 |
| 20260905164536 | 35 | 65 | 1.6 | 8.0 | 0.00 | 0.00 | 0.00 | 56 | 1012.4 |
| 20260905163031 | 35 | 331 | 0.0 | 4.8 | 0.00 | 0.00 | 0.00 | 58 | 1012.7 |
| 20260905161527 | 35 | 338 | 1.6 | 4.8 | 0.00 | 0.00 | 0.00 | 59 | 1012.8 |
| 20260905160023 | 34 | 123 | 0.0 | 3.2 | 0.00 | 0.00 | 0.00 | 63 | 1013.0 |
| 20260905154519 | 33 | 221 | 1.6 | 8.0 | 0.00 | 0.00 | 0.00 | 65 | 1013.0 |
| 20260905153025 | 32 | 147 | 0.0 | 6.4 | 0.00 | 0.00 | 0.00 | 67 | 1013.2 |
| 20260905151512 | 32 | 315 | 3.2 | 8.0 | 0.00 | 0.00 | 0.00 | 69 | 1013.3 |
| 20260905150012 | 32 | 203 | 0.0 | 8.0 | 0.00 | 0.00 | 0.00 | 71 | 1013.4 |
| 20260905144502 | 31 | 242 | 0.0 | 4.8 | 0.00 | 0.00 | 0.00 | 71 | 1013.7 |
| 20260905143059 | 31 | 302 | 0.0 | 4.8 | 0.00 | 0.00 | 0.00 | 75 | 1013.8 |
| 20260905141554 | 30 | 30 | 0.0 | 4.8 | 0.00 | 0.00 | 0.00 | 77 | 1013.9 |
| 20260905140050 | 28 | 346 | 0.0 | 4.8 | 0.00 | 0.00 | 0.00 | 81 | 1014.1 |
| 20260905134544 | 27 | 340 | 0.0 | 11.3 | 0.00 | 0.00 | 0.00 | 86 | 1014.2 |
| 20260905133040 | 26 | 244 | 0.0 | 6.4 | 0.00 | 0.00 | 0.00 | 91 | 1014.1 |
| 20260905131550 | 25 | 282 | 1.6 | 3.2 | 0.00 | 0.00 | 0.00 | 93 | 1014.2 |
| 20260905130032 | 25 | 214 | 0.0 | 3.2 | 0.00 | 0.00 | 0.00 | 93 | 1014.3 |
| 20260905124528 | 24 | 182 | 0.0 | 3.2 | 0.00 | 0.00 | 0.00 | 93 | 1014.3 |
| 20260905123053 | 23 | 338 | 0.0 | 1.6 | 0.00 | 0.00 | 0.00 | 92 | 1014.1 |
| 20260905121524 | 23 | 338 | 0.0 | 3.2 | 0.00 | 0.00 | 0.00 | 92 | 1014.0 |
| 20260905120027 | 23 | 338 | 0.0 | 1.6 | 0.00 | 0.00 | 0.00 | 92 | 1013.7 |
| 20260905114521 | 23 | 338 | 0.0 | 3.2 | 0.00 | 0.00 | 0.00 | 92 | 1013.6 |
| 20260905113019 | 23 | 355 | 0.0 | 1.6 | 0.00 | 0.00 | 0.00 | 92 | 1013.6 |
| 20260905111513 | 23 | 355 | 0.0 | 1.6 | 0.00 | 0.00 | 0.00 | 91 | 1013.4 |
| 20260905110013 | 23 | 355 | 0.0 | 1.6 | 0.00 | 0.00 | 0.00 | 91 | 1013.3 |
| 20260905104512 | 23 | 355 | 0.0 | 1.6 | 0.00 | 0.00 | 0.00 | 91 | 1013.3 |
| 20260905103012 | 23 | 355 | 0.0 | 0.0 | 0.00 | 0.00 | 0.00 | 91 | 1013.0 |
| 20260905101511 | 23 | 355 | 0.0 | 1.6 | 0.00 | 0.00 | 0.00 | 91 | 1013.0 |
| 20260905100011 | 23 | 355 | 0.0 | 0.0 | 0.00 | 0.00 | 0.00 | 90 | 1012.9 |
| 20260905094508 | 23 | 355 | 0.0 | 1.6 | 0.00 | 0.00 | 0.00 | 90 | 1012.9 |